Time,TemperatureF,DewpointF,PressureIn,WindDirection,WindDirectionDegrees,WindSpeedMPH,WindSpeedGustMPH,Humidity,HourlyPrecipIn,Conditions,Clouds,dailyrainin,SolarRadiationWatts/m^2,SoftwareType,DateUTC
2013-09-04 00:22:00,66.0,60.0,-100.00,WNW,286,4.0,5.0,81,0.00,,,-99.99,0.000000,,2013-09-04 06:22:00,
2013-09-04 02:50:00,61.0,58.0,-100.00,SE,137,0.0,1.0,92,0.00,,,-99.99,0.000000,,2013-09-04 08:50:00,
2013-09-04 03:21:00,61.0,58.0,-100.00,SE,137,0.0,1.0,92,0.00,,,-99.99,0.000000,,2013-09-04 09:21:00,
2013-09-04 03:33:00,61.0,58.0,-100.00,SE,137,0.0,1.0,92,0.00,,,-99.99,0.000000,,2013-09-04 09:33:00,
2013-09-04 03:43:00,61.0,58.0,-100.00,SE,137,0.0,1.0,92,0.00,,,-99.99,0.000000,,2013-09-04 09:43:00,
2013-09-04 07:50:00,59.0,57.0,-100.00,SSW,204,1.0,2.0,93,0.00,,,-99.99,120.000000,,2013-09-04 13:50:00,
2013-09-04 08:21:00,59.0,57.0,-100.00,SSW,204,1.0,2.0,93,0.00,,,-99.99,120.000000,,2013-09-04 14:21:00,
2013-09-04 08:32:00,59.0,57.0,-100.00,SSW,204,1.0,2.0,93,0.00,,,-99.99,120.000000,,2013-09-04 14:32:00,
2013-09-04 08:42:00,59.0,57.0,-100.00,SSW,204,1.0,2.0,93,0.00,,,-99.99,120.000000,,2013-09-04 14:42:00,
2013-09-04 10:53:00,76.0,60.0,-100.00,West,259,4.0,7.0,57,0.00,,,-99.99,596.000000,,2013-09-04 16:53:00,
2013-09-04 11:52:00,79.0,59.0,-100.00,WSW,256,3.0,6.0,51,0.00,,,-99.99,788.000000,,2013-09-04 17:52:00,
2013-09-04 12:50:00,84.0,56.0,-100.00,WSW,250,6.0,9.0,38,0.00,,,-99.99,1103.000000,,2013-09-04 18:50:00,
2013-09-04 13:22:00,84.0,56.0,-100.00,WSW,250,6.0,9.0,38,0.00,,,-99.99,1103.000000,,2013-09-04 19:22:00,
2013-09-04 13:32:00,84.0,56.0,-100.00,WSW,250,6.0,9.0,38,0.00,,,-99.99,1103.000000,,2013-09-04 19:32:00,
2013-09-04 13:42:00,84.0,56.0,-100.00,WSW,250,6.0,9.0,38,0.00,,,-99.99,1103.000000,,2013-09-04 19:42:00,
2013-09-04 14:53:00,89.0,53.0,-100.00,SW,220,2.0,3.0,29,0.00,,,-99.99,1047.000000,,2013-09-04 20:53:00,
2013-09-04 17:22:00,85.0,50.0,-100.00,ESE,122,4.0,6.0,30,0.00,,,-99.99,258.000000,,2013-09-04 23:22:00,
2013-09-04 17:50:00,89.0,47.0,-100.00,SSW,197,3.0,6.0,23,0.00,,,-99.99,413.000000,,2013-09-04 23:50:00,
2013-09-04 18:22:00,89.0,47.0,-100.00,SSW,197,3.0,6.0,23,0.00,,,-99.99,413.000000,,2013-09-05 00:22:00,
2013-09-04 18:32:00,89.0,47.0,-100.00,SSW,197,3.0,6.0,23,0.00,,,-99.99,413.000000,,2013-09-05 00:32:00,
2013-09-04 18:42:00,89.0,47.0,-100.00,SSW,197,3.0,6.0,23,0.00,,,-99.99,413.000000,,2013-09-05 00:42:00,
2013-09-04 21:54:00,75.0,48.0,-100.00,ESE,122,3.0,5.0,39,0.00,,,-99.99,0.000000,,2013-09-05 03:54:00,
2013-09-04 22:53:00,79.0,46.0,-100.00,ENE,76,11.0,18.0,32,0.00,,,-99.99,0.000000,,2013-09-05 04:53:00,